This is the latest recevied weather packets stored in our database for station/object KB3HLL. If no packets are shown the sender has not sent any weather packets the latest 10 day(s).
| Time | Temp. | Humidity | Pressure | Rain* | Wind** | Luminosity | Snow |
|---|---|---|---|---|---|---|---|
| 1777649178 | 8.33° C | 62% | 1014.1 hPa | 0 mm | - | 881 W/m² | - |
| 1777648878 | 8.33° C | 64% | 1014.2 hPa | 0 mm | - | 879 W/m² | - |
| 1777648278 | 7.78° C | 67% | 1014.2 hPa | 0 mm | - | 729 W/m² | - |
| 1777647978 | 7.78° C | 65% | 1014.3 hPa | 0 mm | - | 551 W/m² | - |
| 1777647678 | 7.22° C | 70% | 1014.2 hPa | 0 mm | - | 493 W/m² | - |
| 1777647378 | 7.78° C | 67% | 1014.1 hPa | 0 mm | - | 600 W/m² | - |
| 1777647078 | 7.78° C | 65% | 1014.1 hPa | 0 mm | - | 541 W/m² | - |
| 1777646778 | 7.78° C | 66% | 1014 hPa | 0 mm | - | 798 W/m² | - |
| 1777646478 | 7.78° C | 64% | 1014.1 hPa | 0 mm | - | 459 W/m² | - |
| 1777646178 | 7.22° C | 68% | 1014.1 hPa | 0 mm | - | 765 W/m² | - |
| 1777645878 | 7.22° C | 69% | 1014 hPa | 0 mm | - | 751 W/m² | - |
| 1777645579 | 7.22° C | 70% | 1014.1 hPa | 0 mm | - | 739 W/m² | - |
| 1777645278 | 6.67° C | 68% | 1014.1 hPa | 0 mm | - | 724 W/m² | - |
| 1777644978 | 6.67° C | 71% | 1014.1 hPa | 0 mm | - | 734 W/m² | - |
| 1777644678 | 6.67° C | 76% | 1014.2 hPa | 0 mm | - | 476 W/m² | - |
| 1777644378 | 6.67° C | 77% | 1014.3 hPa | 0 mm | - | 713 W/m² | - |
| 1777644078 | 6.11° C | 80% | 1014.4 hPa | 0 mm | - | 660 W/m² | - |
| 1777643778 | 6.11° C | 81% | 1014.3 hPa | 0 mm | - | 645 W/m² | - |
| 1777643477 | 5.56° C | 81% | 1014.4 hPa | 0 mm | - | 627 W/m² | - |
| 1777643177 | 5.56° C | 81% | 1014.3 hPa | 0 mm | - | 608 W/m² | - |
| 1777642877 | 5.56° C | 81% | 1014.3 hPa | 0 mm | - | 589 W/m² | - |
| 1777642577 | 5.56° C | 81% | 1014.3 hPa | 0 mm | - | 570 W/m² | - |
| 1777642280 | 5.56° C | 82% | 1014.4 hPa | 0 mm | - | 551 W/m² | - |
| 1777641978 | 5.56° C | 84% | 1014.4 hPa | 0 mm | - | 534 W/m² | - |
| 1777641678 | 5° C | 84% | 1014.4 hPa | 0 mm | - | 515 W/m² | - |
* Rain latest hour (hover to see other rain measurements)
** Current wind speed in m/s (hover to see current wind gust speed)